CZ-4 DEB, 26143

Orbit data source: Space-Track

CZ-4 DEB, 26143 is space debris in SSO originally from a launch on Thu, 14 Oct 1999 UTC launched from the Taiyaun Space Center, China (TSC). Debris objects in space refer to the collection of defunct objects orbiting the Earth. Examples of debris include non-operational satellites, rocket bodies, and fragments generated from explosions, collisions, or faulty payload assembly.

Loading next visibility...
Identifier
26143, 1999-057AF
Orbit
SSO
Last TLE update
1 day ago
Origin
Manufacturer
Unknown
Mission
Spacecraft
Bus & Motor
Unknown
Mass
Unknown
Launch date (UTC)
1999-10-14 (26 years ago)
Launch vehicle
Unknown
Launch site
Taiyaun Space Center, China (TSC)
Object type
Payload
Rocket body
Debris
Shape & HBR
Unknown
Radar Cross Section
Small (<0.1 m²)

Expand to show TLE details & history

TLE from 1 day ago
0 CZ-4 DEB
1 26143U 99057AF  25191.24161007  .00000132  00000-0  14278-3 0  9996
2 26143  98.9524 180.9285 0475986 273.8092  96.5847 13.47228377241671
Epoch: 2025-07-10T05:47Z
TLE epoch observation values (Epoch: 2025-07-10T05:47:55.11Z)
Latitude
15.54956°
Longitude
163.03861°
Altitude
1,141.858 km
Speed
7.255 km/s
True Right ascension
11h 53m 42s
True Declination
15° 27' 56"
Sunlit
Object was in daylight at epoch
Visualization orbit readout
Latitude
-41.74388°
Longitude
174.69994°
Altitude
848.487 km
Speed
7.551 km/s
Apparent Right ascension
12h 24m 37s
Apparent Declination
-40° 46' 57"
Sunlit
Object is in daylight
Visualization observer readout
Local Sidereal Time
00:07:16
Azimuth
253.915° W
Elevation
-86.584°
Doppler factor
1
Orbital elements
Apogee altitude
1,434.716 km
Perigee altitude
724.748 km
Semi-major axis
7,457.869 km
Eccentricity
0.0476
Inclination
98.9524°
RAAN
180.9285°
Arg. of periapsis
273.8092°
True anomaly
Unknown
Mean anomaly
96.5847°
Eccentric anomaly
Unknown
Mean motion
3.36993 °/min
Orbital period
106.83 mins
BSTAR
0.00014278
Loading maneuver chart data...
Loading SW <> Apogee altitude chart data...
Loading historical data...
Loading historical data...
Loading historical data...
Loading historical data...
Loading historical data...
Loading historical data...
Loading historical data...

CZ-4 DEB Visibility forecast

Observer location: undefined°, undefined°

Span
Click to sort rows by Start time (UTC) header in descending order
Start Az.
Max El. time (UTC)
Max El. Az.
Max El.
End time (UTC)
End Az.
15 mins2025-07-11 12:37:10.492Z7.821° NNE2025-07-11 12:45:10.492Z285.86° WNW42.009°2025-07-11 12:52:10.492Z210.625° SW
6 mins2025-07-11 14:26:10.492Z329.793° NNW2025-07-11 14:29:10.492Z306.255° NW13.833°2025-07-11 14:32:10.492Z282.887° WNW
5 mins2025-07-11 21:10:10.492Z65.636° ENE2025-07-11 21:12:10.492Z49.257° ENE14.051°2025-07-11 21:15:10.492Z26.365° NE
13 mins2025-07-11 22:50:10.492Z146.846° SSE2025-07-11 22:56:10.492Z52.585° ENE41.92°2025-07-11 23:03:10.492Z352.547° N
10 mins2025-07-12 00:37:10.492Z224.655° SW2025-07-12 00:42:10.492Z276.039° WNW23.651°2025-07-12 00:47:10.492Z318.912° NNW
|